BAW490 EGLL-LXGB

Flight info

Callsign BAW490
Flight time 2h 22m
Altitude 35000
Route GASGU N866 SAM M195 MARUK N621 LELNA DCT ERCOZ DCT NOVAN/N0445F370 DCT DELOG DCT CRISA DCT VULPE DCT MAR N864 PIMOS DCT
Aircraft A320/M-SDE3FGIJ1KRWXY/SB1

Departure

Time 2026-05-06 07:18
Airport London Heathrow Airport (EGLL)

Arrival

Time 2026-05-06 09:41
Airport Gibraltar Airport (LXGB)
Time Latitude Longitude Altitude Speed Heading
2026-05-06 07:00 51.47413 -0.45961 86 ft 0 kts 56°
2026-05-06 07:05 51.47404 -0.45981 91 ft 4 kts 56°
2026-05-06 07:05 51.47390 -0.46014 86 ft 1 kts 56°
2026-05-06 07:05 51.47375 -0.46042 91 ft 4 kts 24°
2026-05-06 07:05 51.47354 -0.46043 87 ft 4 kts 322°
2026-05-06 07:06 51.47348 -0.46036 90 ft 3 kts 310°
2026-05-06 07:06 51.47367 -0.46065 90 ft 4 kts 321°
2026-05-06 07:06 51.47389 -0.46090 86 ft 3 kts 325°
2026-05-06 07:06 51.47392 -0.46093 86 ft 0 kts 325°
2026-05-06 07:10 51.47393 -0.46094 90 ft 1 kts 325°
2026-05-06 07:10 51.47403 -0.46105 87 ft 3 kts 326°
2026-05-06 07:10 51.47423 -0.46127 88 ft 4 kts 326°
2026-05-06 07:10 51.47454 -0.46160 87 ft 6 kts 327°
2026-05-06 07:11 51.47495 -0.46203 86 ft 8 kts 327°
2026-05-06 07:11 51.47516 -0.46284 86 ft 9 kts 274°
2026-05-06 07:11 51.47516 -0.46385 86 ft 10 kts 269°
2026-05-06 07:11 51.47516 -0.46499 86 ft 11 kts 270°
2026-05-06 07:12 51.47515 -0.46627 86 ft 12 kts 269°
2026-05-06 07:12 51.47499 -0.46759 87 ft 12 kts 251°
2026-05-06 07:12 51.47480 -0.46877 90 ft 11 kts 225°
2026-05-06 07:12 51.47408 -0.46881 87 ft 11 kts 167°
2026-05-06 07:13 51.47331 -0.46866 86 ft 11 kts 180°
2026-05-06 07:13 51.47249 -0.46866 86 ft 12 kts 180°
2026-05-06 07:13 51.47164 -0.46865 86 ft 13 kts 179°
2026-05-06 07:13 51.47074 -0.46865 86 ft 13 kts 180°
2026-05-06 07:14 51.46978 -0.46864 86 ft 14 kts 180°
2026-05-06 07:14 51.46873 -0.46863 86 ft 16 kts 179°
2026-05-06 07:14 51.46764 -0.46861 87 ft 15 kts 179°
2026-05-06 07:14 51.46684 -0.46866 86 ft 11 kts 197°
2026-05-06 07:15 51.46657 -0.46976 88 ft 13 kts 269°
2026-05-06 07:15 51.46656 -0.47133 89 ft 16 kts 270°
2026-05-06 07:15 51.46656 -0.47324 86 ft 19 kts 270°
2026-05-06 07:15 51.46655 -0.47545 88 ft 20 kts 268°
2026-05-06 07:16 51.46655 -0.47771 86 ft 20 kts 270°
2026-05-06 07:16 51.46654 -0.47982 86 ft 15 kts 270°
2026-05-06 07:16 51.46654 -0.48117 86 ft 10 kts 270°
2026-05-06 07:16 51.46627 -0.48209 88 ft 11 kts 204°
2026-05-06 07:17 51.46552 -0.48213 87 ft 10 kts 179°
2026-05-06 07:17 51.46495 -0.48212 88 ft 3 kts 180°
2026-05-06 07:17 51.46482 -0.48194 90 ft 4 kts 112°
2026-05-06 07:17 51.46479 -0.48131 88 ft 9 kts 90°
2026-05-06 07:18 51.46481 -0.47755 86 ft 68 kts 89°
2026-05-06 07:18 51.46485 -0.46655 92 ft 126 kts 90°
2026-05-06 07:18 51.46491 -0.45000 170 ft 161 kts 87°
2026-05-06 07:18 51.46500 -0.43217 801 ft 160 kts 85°
2026-05-06 07:19 51.46380 -0.41428 1442 ft 170 kts 108°
2026-05-06 07:19 51.45670 -0.39735 1770 ft 195 kts 122°
2026-05-06 07:19 51.44833 -0.37867 2051 ft 219 kts 120°
2026-05-06 07:19 51.43921 -0.35754 2457 ft 243 kts 121°
2026-05-06 07:20 51.42654 -0.33797 3103 ft 264 kts 146°
2026-05-06 07:20 51.40885 -0.32820 3923 ft 277 kts 174°
2026-05-06 07:20 51.38965 -0.33178 4794 ft 281 kts 202°
2026-05-06 07:20 51.37321 -0.34808 5722 ft 279 kts 225°
2026-05-06 07:21 51.35904 -0.36863 6715 ft 278 kts 226°
2026-05-06 07:21 51.34467 -0.38965 7624 ft 282 kts 225°
2026-05-06 07:21 51.33011 -0.41097 8508 ft 285 kts 225°
2026-05-06 07:21 51.31556 -0.43277 9360 ft 289 kts 230°
2026-05-06 07:22 51.30406 -0.45906 10119 ft 290 kts 246°
2026-05-06 07:22 51.29728 -0.48971 10705 ft 300 kts 256°
2026-05-06 07:22 51.29138 -0.52280 10985 ft 323 kts 256°
2026-05-06 07:22 51.28502 -0.55850 11421 ft 338 kts 256°
2026-05-06 07:23 51.27839 -0.59484 12112 ft 343 kts 255°
2026-05-06 07:23 51.27140 -0.63141 12858 ft 345 kts 255°
2026-05-06 07:23 51.26417 -0.66821 13588 ft 349 kts 254°
2026-05-06 07:23 51.25684 -0.70518 14248 ft 352 kts 253°
2026-05-06 07:24 51.24952 -0.74210 14894 ft 354 kts 253°
2026-05-06 07:24 51.24211 -0.77963 15555 ft 356 kts 254°
2026-05-06 07:24 51.23468 -0.81748 16211 ft 358 kts 253°
2026-05-06 07:24 51.22720 -0.85567 16825 ft 361 kts 253°
2026-05-06 07:25 51.21966 -0.89415 17415 ft 365 kts 254°
2026-05-06 07:25 51.21087 -0.93214 18072 ft 369 kts 243°
2026-05-06 07:25 51.19556 -0.96525 18673 ft 374 kts 227°
2026-05-06 07:25 51.17718 -0.99494 19277 ft 377 kts 226°
2026-05-06 07:26 51.15856 -1.02456 19868 ft 380 kts 226°
2026-05-06 07:26 51.13975 -1.05423 20479 ft 382 kts 226°
2026-05-06 07:26 51.12100 -1.08375 21050 ft 385 kts 226°
2026-05-06 07:26 51.10188 -1.11393 21591 ft 389 kts 226°
2026-05-06 07:27 51.08264 -1.14433 22141 ft 391 kts 226°
2026-05-06 07:27 51.06322 -1.17498 22684 ft 394 kts 226°
2026-05-06 07:27 51.04367 -1.20582 23181 ft 397 kts 226°
2026-05-06 07:27 51.02400 -1.23688 23685 ft 400 kts 226°
2026-05-06 07:28 51.00440 -1.26782 24125 ft 402 kts 226°
2026-05-06 07:28 50.98446 -1.29925 24534 ft 405 kts 226°
2026-05-06 07:28 50.94213 -1.35892 25358 ft 412 kts 215°
2026-05-06 07:29 50.91800 -1.38403 25757 ft 415 kts 214°
2026-05-06 07:29 50.89384 -1.40911 26137 ft 417 kts 215°
2026-05-06 07:29 50.86951 -1.43441 26503 ft 419 kts 215°
2026-05-06 07:29 50.84505 -1.45981 26853 ft 423 kts 214°
2026-05-06 07:30 50.82033 -1.48550 27201 ft 426 kts 215°
2026-05-06 07:30 50.79546 -1.51130 27562 ft 429 kts 214°
2026-05-06 07:30 50.77046 -1.53719 27924 ft 431 kts 214°
2026-05-06 07:30 50.74561 -1.56288 28282 ft 434 kts 215°
2026-05-06 07:31 50.72028 -1.58906 28646 ft 436 kts 214°
2026-05-06 07:31 50.69483 -1.61533 28995 ft 439 kts 214°
2026-05-06 07:31 50.66921 -1.64172 29325 ft 441 kts 215°
2026-05-06 07:31 50.64342 -1.66823 29662 ft 444 kts 214°
2026-05-06 07:32 50.61747 -1.69489 30012 ft 445 kts 214°
2026-05-06 07:32 50.59145 -1.72157 30383 ft 445 kts 214°
2026-05-06 07:32 50.56547 -1.74810 30788 ft 445 kts 214°
2026-05-06 07:32 50.53946 -1.77463 31171 ft 445 kts 214°
2026-05-06 07:33 50.51351 -1.80111 31534 ft 445 kts 214°
2026-05-06 07:33 50.48788 -1.82732 31898 ft 446 kts 214°
2026-05-06 07:33 50.46187 -1.85390 32276 ft 446 kts 214°
2026-05-06 07:33 50.43586 -1.88046 32666 ft 446 kts 215°
2026-05-06 07:34 50.40986 -1.90697 33081 ft 445 kts 214°
2026-05-06 07:34 50.38381 -1.93344 33453 ft 446 kts 214°
2026-05-06 07:34 50.35771 -1.95988 33771 ft 448 kts 214°
2026-05-06 07:34 50.33151 -1.98632 34135 ft 448 kts 214°
2026-05-06 07:35 50.31413 -2.00384 34361 ft 448 kts 214°
2026-05-06 07:35 50.28792 -2.03023 34682 ft 448 kts 213°
2026-05-06 07:35 50.26050 -2.05337 34928 ft 450 kts 205°
2026-05-06 07:35 50.23091 -2.06971 34983 ft 453 kts 195°
2026-05-06 07:36 50.16814 -2.08245 34981 ft 456 kts 185°
2026-05-06 07:36 50.10487 -2.09044 34978 ft 457 kts 185°
2026-05-06 07:37 50.04150 -2.09873 34978 ft 456 kts 185°
2026-05-06 07:37 49.97940 -2.11724 34972 ft 455 kts 201°
2026-05-06 07:38 49.92380 -2.16171 34978 ft 453 kts 213°
2026-05-06 07:38 49.86991 -2.21253 34978 ft 453 kts 212°
2026-05-06 07:39 49.81588 -2.26301 34979 ft 453 kts 212°
2026-05-06 07:39 49.76182 -2.31348 34979 ft 453 kts 212°
2026-05-06 07:40 49.70777 -2.36384 34978 ft 453 kts 212°
2026-05-06 07:40 49.65369 -2.41405 34981 ft 454 kts 212°
2026-05-06 07:41 49.59993 -2.46387 34976 ft 454 kts 212°
2026-05-06 07:41 49.54581 -2.51396 34979 ft 454 kts 212°
2026-05-06 07:42 49.49164 -2.56384 34982 ft 454 kts 212°
2026-05-06 07:42 49.43749 -2.61376 34984 ft 454 kts 212°
2026-05-06 07:43 49.38334 -2.66349 34980 ft 453 kts 212°
2026-05-06 07:43 49.32912 -2.71312 34977 ft 454 kts 212°
2026-05-06 07:44 49.27480 -2.76250 34963 ft 454 kts 212°
2026-05-06 07:44 49.22044 -2.81194 34963 ft 455 kts 212°
2026-05-06 07:45 49.16638 -2.86111 34959 ft 455 kts 212°
2026-05-06 07:45 49.11192 -2.91042 34962 ft 455 kts 211°
2026-05-06 07:46 49.05744 -2.95970 34968 ft 455 kts 211°
2026-05-06 07:46 49.00289 -3.00883 34962 ft 455 kts 211°
2026-05-06 07:47 48.94835 -3.05782 34967 ft 455 kts 211°
2026-05-06 07:47 48.89384 -3.10669 34961 ft 455 kts 211°
2026-05-06 07:48 48.83956 -3.15520 34965 ft 456 kts 211°
2026-05-06 07:48 48.78492 -3.20395 34961 ft 456 kts 211°
2026-05-06 07:49 48.73017 -3.25264 34967 ft 456 kts 211°
2026-05-06 07:49 48.67540 -3.30122 34970 ft 456 kts 211°
2026-05-06 07:50 48.62051 -3.34969 34977 ft 457 kts 211°
2026-05-06 07:50 48.56558 -3.39806 34977 ft 457 kts 211°
2026-05-06 07:51 48.51065 -3.44647 34975 ft 457 kts 211°
2026-05-06 07:51 48.45606 -3.49450 34990 ft 458 kts 211°
2026-05-06 07:52 48.42776 -3.51644 35300 ft 459 kts 200°
2026-05-06 07:52 48.39676 -3.52777 35625 ft 459 kts 186°
2026-05-06 07:52 48.36490 -3.53213 35946 ft 459 kts 185°
2026-05-06 07:52 48.33310 -3.53603 36250 ft 458 kts 185°
2026-05-06 07:53 48.30127 -3.53975 36541 ft 458 kts 185°
2026-05-06 07:53 48.26949 -3.54342 36836 ft 458 kts 185°
2026-05-06 07:53 48.23770 -3.54714 36969 ft 458 kts 185°
2026-05-06 07:53 48.20594 -3.55092 36978 ft 458 kts 185°
2026-05-06 07:54 48.14279 -3.55857 36980 ft 457 kts 185°
2026-05-06 07:54 48.07930 -3.56631 36981 ft 457 kts 185°
2026-05-06 07:55 48.01576 -3.57397 36980 ft 457 kts 185°
2026-05-06 07:55 47.95230 -3.58160 36979 ft 458 kts 185°
2026-05-06 07:56 47.88878 -3.58921 36988 ft 458 kts 185°
2026-05-06 07:56 47.82556 -3.59669 36992 ft 459 kts 185°
2026-05-06 07:57 47.76175 -3.60417 36991 ft 459 kts 185°
2026-05-06 07:57 47.69795 -3.61183 36991 ft 460 kts 185°
2026-05-06 07:58 47.63417 -3.61949 36999 ft 460 kts 185°
2026-05-06 07:58 47.57034 -3.62701 36996 ft 460 kts 185°
2026-05-06 07:59 47.50690 -3.63440 36991 ft 460 kts 186°
2026-05-06 07:59 47.44300 -3.64193 36993 ft 460 kts 185°
2026-05-06 08:00 47.37904 -3.64947 36990 ft 461 kts 185°
2026-05-06 08:00 47.31512 -3.65702 36996 ft 461 kts 185°
2026-05-06 08:01 47.25099 -3.66445 36991 ft 462 kts 185°
2026-05-06 08:01 47.18688 -3.67190 36998 ft 462 kts 185°
2026-05-06 08:02 47.12269 -3.67936 37000 ft 462 kts 185°
2026-05-06 08:02 47.05895 -3.68671 37000 ft 463 kts 185°
2026-05-06 08:03 46.99475 -3.69408 36996 ft 463 kts 185°
2026-05-06 08:03 46.93047 -3.70154 36992 ft 463 kts 185°
2026-05-06 08:04 46.86610 -3.70900 36998 ft 463 kts 185°
2026-05-06 08:04 46.80226 -3.71626 36989 ft 463 kts 186°
2026-05-06 08:05 46.73799 -3.72366 36994 ft 463 kts 186°
2026-05-06 08:05 46.67368 -3.73104 37006 ft 463 kts 185°
2026-05-06 08:06 46.60939 -3.73830 37004 ft 463 kts 186°
2026-05-06 08:06 46.54503 -3.74562 36999 ft 463 kts 185°
2026-05-06 08:07 46.48073 -3.75300 36989 ft 464 kts 186°
2026-05-06 08:07 46.41642 -3.76028 36995 ft 463 kts 185°
2026-05-06 08:08 46.35252 -3.76739 37001 ft 464 kts 185°
2026-05-06 08:08 46.28819 -3.77463 36996 ft 463 kts 185°
2026-05-06 08:09 46.22376 -3.78189 36994 ft 464 kts 185°
2026-05-06 08:09 46.15949 -3.78907 36996 ft 463 kts 186°
2026-05-06 08:10 46.09544 -3.79624 36991 ft 463 kts 185°
2026-05-06 08:10 46.03112 -3.80340 36999 ft 464 kts 186°
2026-05-06 08:11 45.96674 -3.81057 37010 ft 463 kts 185°
2026-05-06 08:11 45.90240 -3.81777 36995 ft 463 kts 185°
2026-05-06 08:12 45.83816 -3.82488 37006 ft 463 kts 185°
2026-05-06 08:12 45.77388 -3.83199 37000 ft 463 kts 185°
2026-05-06 08:13 45.70971 -3.83912 36996 ft 463 kts 185°
2026-05-06 08:13 45.64593 -3.84613 36999 ft 463 kts 185°
2026-05-06 08:14 45.58170 -3.85315 37001 ft 463 kts 185°
2026-05-06 08:14 45.51752 -3.86008 37002 ft 462 kts 185°
2026-05-06 08:15 45.45333 -3.86711 37001 ft 462 kts 185°
2026-05-06 08:15 45.38904 -3.87422 37010 ft 462 kts 186°
2026-05-06 08:16 45.32526 -3.88113 37004 ft 462 kts 185°
2026-05-06 08:16 45.26112 -3.88807 37016 ft 462 kts 185°
2026-05-06 08:17 45.19708 -3.89495 37017 ft 461 kts 185°
2026-05-06 08:17 45.13293 -3.90191 37018 ft 461 kts 186°
2026-05-06 08:18 45.06891 -3.90887 37021 ft 461 kts 185°
2026-05-06 08:18 45.00503 -3.91569 37022 ft 460 kts 186°
2026-05-06 08:19 44.94114 -3.92259 37024 ft 460 kts 186°
2026-05-06 08:19 44.87765 -3.92937 37024 ft 460 kts 186°
2026-05-06 08:20 44.81393 -3.93617 37026 ft 459 kts 185°
2026-05-06 08:20 44.75028 -3.94284 37029 ft 458 kts 186°
2026-05-06 08:21 44.68668 -3.94968 37021 ft 458 kts 186°
2026-05-06 08:21 44.62315 -3.95649 37023 ft 458 kts 185°
2026-05-06 08:22 44.55957 -3.96327 37031 ft 458 kts 186°
2026-05-06 08:22 44.49644 -3.96990 37035 ft 458 kts 186°
2026-05-06 08:23 44.43301 -3.97661 37027 ft 457 kts 186°
2026-05-06 08:23 44.36960 -3.98334 37028 ft 456 kts 186°
2026-05-06 08:24 44.30632 -3.99005 37027 ft 456 kts 186°
2026-05-06 08:24 44.24316 -3.99715 37034 ft 455 kts 186°
2026-05-06 08:25 44.18033 -4.00437 37027 ft 455 kts 186°
2026-05-06 08:25 44.11723 -4.01164 37026 ft 454 kts 187°
2026-05-06 08:26 44.05424 -4.01885 37024 ft 454 kts 187°
2026-05-06 08:26 43.99129 -4.02607 37032 ft 454 kts 187°
2026-05-06 08:27 43.92874 -4.03320 37018 ft 454 kts 187°
2026-05-06 08:27 43.86571 -4.04029 37011 ft 455 kts 187°
2026-05-06 08:28 43.80236 -4.04744 37012 ft 456 kts 187°
2026-05-06 08:28 43.73901 -4.05466 37018 ft 456 kts 187°
2026-05-06 08:29 43.67594 -4.06178 37020 ft 457 kts 187°
2026-05-06 08:29 43.61248 -4.06888 37025 ft 457 kts 187°
2026-05-06 08:30 43.54895 -4.07598 37017 ft 457 kts 187°
2026-05-06 08:30 43.48606 -4.08296 37040 ft 456 kts 187°
2026-05-06 08:31 43.42272 -4.09006 37052 ft 456 kts 187°
2026-05-06 08:31 43.35957 -4.09709 37052 ft 455 kts 187°
2026-05-06 08:32 43.29643 -4.10414 37045 ft 455 kts 187°
2026-05-06 08:32 43.23330 -4.11115 37048 ft 455 kts 187°
2026-05-06 08:33 43.17057 -4.11817 37043 ft 455 kts 187°
2026-05-06 08:33 43.10748 -4.12517 37031 ft 454 kts 188°
2026-05-06 08:34 43.02351 -4.13428 37035 ft 455 kts 188°
2026-05-06 08:35 42.94997 -4.14240 37052 ft 455 kts 188°
2026-05-06 08:35 42.89740 -4.14815 37035 ft 455 kts 188°
2026-05-06 08:36 42.83430 -4.15494 37053 ft 455 kts 188°
2026-05-06 08:36 42.77120 -4.16177 37054 ft 455 kts 188°
2026-05-06 08:37 42.70811 -4.16867 37053 ft 455 kts 188°
2026-05-06 08:37 42.64495 -4.17567 37044 ft 455 kts 188°
2026-05-06 08:38 42.58193 -4.18260 37056 ft 455 kts 188°
2026-05-06 08:38 42.51882 -4.18943 37038 ft 454 kts 188°
2026-05-06 08:39 42.45622 -4.19614 37056 ft 453 kts 188°
2026-05-06 08:39 42.39332 -4.20281 37058 ft 453 kts 188°
2026-05-06 08:40 42.33053 -4.20959 37055 ft 452 kts 188°
2026-05-06 08:40 42.26788 -4.21642 37049 ft 451 kts 188°
2026-05-06 08:41 42.20528 -4.22319 37058 ft 451 kts 188°
2026-05-06 08:41 42.14326 -4.22985 37055 ft 450 kts 188°
2026-05-06 08:42 42.08085 -4.23650 37036 ft 449 kts 188°
2026-05-06 08:42 42.01860 -4.24303 37053 ft 448 kts 188°
2026-05-06 08:43 41.95640 -4.24961 37056 ft 448 kts 188°
2026-05-06 08:43 41.89437 -4.25624 37038 ft 447 kts 188°
2026-05-06 08:44 41.83284 -4.26285 37052 ft 446 kts 188°
2026-05-06 08:44 41.77095 -4.26944 37045 ft 445 kts 188°
2026-05-06 08:45 41.70917 -4.27591 37044 ft 445 kts 188°
2026-05-06 08:45 41.64750 -4.28239 37028 ft 444 kts 189°
2026-05-06 08:46 41.58592 -4.28888 37035 ft 443 kts 189°
2026-05-06 08:46 41.52446 -4.29537 37033 ft 443 kts 189°
2026-05-06 08:47 41.46342 -4.30180 37014 ft 443 kts 189°
2026-05-06 08:47 41.40199 -4.30820 37025 ft 443 kts 189°
2026-05-06 08:48 41.34053 -4.31456 37031 ft 443 kts 189°
2026-05-06 08:48 41.27913 -4.32098 37028 ft 442 kts 189°
2026-05-06 08:49 41.21771 -4.32740 37027 ft 442 kts 189°
2026-05-06 08:49 41.15678 -4.33369 37038 ft 442 kts 189°
2026-05-06 08:50 41.09547 -4.34004 37041 ft 441 kts 189°
2026-05-06 08:50 41.03421 -4.34630 37015 ft 441 kts 189°
2026-05-06 08:51 40.97308 -4.35266 37035 ft 440 kts 189°
2026-05-06 08:51 40.91210 -4.35902 37038 ft 440 kts 189°
2026-05-06 08:52 40.85116 -4.36523 37038 ft 439 kts 189°
2026-05-06 08:52 40.79021 -4.37150 37029 ft 439 kts 189°
2026-05-06 08:53 40.72934 -4.37780 37050 ft 438 kts 189°
2026-05-06 08:53 40.66898 -4.38402 37038 ft 438 kts 189°
2026-05-06 08:54 40.60811 -4.39018 37039 ft 438 kts 189°
2026-05-06 08:54 40.54740 -4.39624 37040 ft 437 kts 189°
2026-05-06 08:55 40.48680 -4.40243 37027 ft 437 kts 189°
2026-05-06 08:55 40.42618 -4.40863 37028 ft 437 kts 189°
2026-05-06 08:56 40.36553 -4.41480 37005 ft 437 kts 190°
2026-05-06 08:56 40.30536 -4.42091 37031 ft 436 kts 190°
2026-05-06 08:57 40.24483 -4.42698 37027 ft 435 kts 190°
2026-05-06 08:57 40.18440 -4.43305 37023 ft 435 kts 190°
2026-05-06 08:58 40.12401 -4.43912 37009 ft 435 kts 190°
2026-05-06 08:58 40.06368 -4.44517 37015 ft 435 kts 190°
2026-05-06 08:59 40.00338 -4.45123 37018 ft 434 kts 190°
2026-05-06 08:59 39.94356 -4.45725 36990 ft 434 kts 190°
2026-05-06 09:00 39.88334 -4.46330 37004 ft 433 kts 190°
2026-05-06 09:00 39.82322 -4.46929 37010 ft 433 kts 190°
2026-05-06 09:01 39.76322 -4.47527 37009 ft 432 kts 190°
2026-05-06 09:01 39.70323 -4.48123 36993 ft 432 kts 190°
2026-05-06 09:02 39.64329 -4.48711 37003 ft 432 kts 190°
2026-05-06 09:02 39.58335 -4.49304 37005 ft 432 kts 190°
2026-05-06 09:03 39.52343 -4.49906 37007 ft 432 kts 190°
2026-05-06 09:03 39.46398 -4.50499 36984 ft 431 kts 191°
2026-05-06 09:04 39.40419 -4.51086 36997 ft 430 kts 190°
2026-05-06 09:04 39.34449 -4.51658 37005 ft 429 kts 191°
2026-05-06 09:05 39.28485 -4.52245 37001 ft 429 kts 191°
2026-05-06 09:05 39.22532 -4.52834 36992 ft 429 kts 191°
2026-05-06 09:06 39.16588 -4.53419 37001 ft 428 kts 191°
2026-05-06 09:06 39.10688 -4.53997 36999 ft 428 kts 191°
2026-05-06 09:07 39.04751 -4.54575 36997 ft 427 kts 191°
2026-05-06 09:07 38.98820 -4.55157 36983 ft 427 kts 191°
2026-05-06 09:08 38.92905 -4.55760 36996 ft 425 kts 192°
2026-05-06 09:08 38.87077 -4.56832 37000 ft 421 kts 196°
2026-05-06 09:09 38.81315 -4.58183 37005 ft 421 kts 196°
2026-05-06 09:09 38.75583 -4.59474 36990 ft 421 kts 195°
2026-05-06 09:10 38.69799 -4.60681 36992 ft 421 kts 195°
2026-05-06 09:10 38.64006 -4.61859 36991 ft 421 kts 195°
2026-05-06 09:11 38.58217 -4.63043 36989 ft 421 kts 195°
2026-05-06 09:11 38.52470 -4.64232 36970 ft 420 kts 195°
2026-05-06 09:12 38.46707 -4.65430 36986 ft 419 kts 195°
2026-05-06 09:12 38.40957 -4.66619 36989 ft 418 kts 195°
2026-05-06 09:13 38.35209 -4.67794 36982 ft 418 kts 195°
2026-05-06 09:13 38.29491 -4.68967 36982 ft 418 kts 195°
2026-05-06 09:14 38.23715 -4.70151 36982 ft 418 kts 195°
2026-05-06 09:14 38.17975 -4.71324 36980 ft 418 kts 195°
2026-05-06 09:15 38.12271 -4.72484 36980 ft 418 kts 195°
2026-05-06 09:15 38.06533 -4.73658 36970 ft 417 kts 195°
2026-05-06 09:16 38.00804 -4.74835 36979 ft 417 kts 196°
2026-05-06 09:16 37.95074 -4.76012 36993 ft 417 kts 195°
2026-05-06 09:17 37.89342 -4.77174 36994 ft 416 kts 195°
2026-05-06 09:17 37.83656 -4.78319 36965 ft 416 kts 196°
2026-05-06 09:18 37.77869 -4.79137 36977 ft 420 kts 191°
2026-05-06 09:18 37.72016 -4.79515 36973 ft 422 kts 189°
2026-05-06 09:18 37.69083 -4.79670 36720 ft 421 kts 189°
2026-05-06 09:19 37.66157 -4.79829 36452 ft 420 kts 189°
2026-05-06 09:19 37.63239 -4.79998 36095 ft 420 kts 190°
2026-05-06 09:19 37.60319 -4.80175 35389 ft 420 kts 190°
2026-05-06 09:19 37.57389 -4.80361 34647 ft 422 kts 190°
2026-05-06 09:20 37.54443 -4.80556 33840 ft 425 kts 190°
2026-05-06 09:20 37.51486 -4.80755 32946 ft 427 kts 190°
2026-05-06 09:20 37.48553 -4.80952 32135 ft 427 kts 190°
2026-05-06 09:20 37.45607 -4.81142 31679 ft 420 kts 190°
2026-05-06 09:21 37.42695 -4.81325 31130 ft 416 kts 189°
2026-05-06 09:21 37.39813 -4.81504 30594 ft 412 kts 189°
2026-05-06 09:21 37.36951 -4.81680 30031 ft 409 kts 189°
2026-05-06 09:21 37.34125 -4.81855 29471 ft 405 kts 189°
2026-05-06 09:22 37.31326 -4.82031 28931 ft 400 kts 189°
2026-05-06 09:22 37.28597 -4.82205 28425 ft 395 kts 189°
2026-05-06 09:22 37.25853 -4.82381 27904 ft 391 kts 189°
2026-05-06 09:22 37.23142 -4.82555 27387 ft 388 kts 189°
2026-05-06 09:23 37.20449 -4.82727 26880 ft 386 kts 189°
2026-05-06 09:23 37.17774 -4.82900 26377 ft 384 kts 189°
2026-05-06 09:23 37.15112 -4.83072 25889 ft 382 kts 188°
2026-05-06 09:23 37.12501 -4.83240 25397 ft 380 kts 188°
2026-05-06 09:24 37.09860 -4.83408 24941 ft 379 kts 188°
2026-05-06 09:24 37.07228 -4.83577 24475 ft 378 kts 188°
2026-05-06 09:24 37.04603 -4.83743 24026 ft 377 kts 188°
2026-05-06 09:24 37.01981 -4.83907 23580 ft 376 kts 188°
2026-05-06 09:25 36.99369 -4.84069 23077 ft 375 kts 188°
2026-05-06 09:25 36.96776 -4.84229 22645 ft 371 kts 188°
2026-05-06 09:25 36.94208 -4.84389 22200 ft 367 kts 187°
2026-05-06 09:25 36.91667 -4.84547 21753 ft 364 kts 187°
2026-05-06 09:26 36.89149 -4.84705 21292 ft 361 kts 187°
2026-05-06 09:26 36.86655 -4.84863 20844 ft 357 kts 187°
2026-05-06 09:26 36.84208 -4.85019 20393 ft 355 kts 187°
2026-05-06 09:26 36.81742 -4.85175 19919 ft 354 kts 187°
2026-05-06 09:27 36.79287 -4.85332 19449 ft 352 kts 187°
2026-05-06 09:27 36.76843 -4.85490 18965 ft 350 kts 187°
2026-05-06 09:27 36.74411 -4.85647 18481 ft 350 kts 187°
2026-05-06 09:27 36.71982 -4.85800 17954 ft 349 kts 186°
2026-05-06 09:28 36.69561 -4.85950 17461 ft 347 kts 186°
2026-05-06 09:28 36.67155 -4.86100 16967 ft 345 kts 186°
2026-05-06 09:28 36.64799 -4.86248 16488 ft 343 kts 186°
2026-05-06 09:28 36.62417 -4.86397 16009 ft 341 kts 186°
2026-05-06 09:29 36.60051 -4.86544 15523 ft 340 kts 186°
2026-05-06 09:29 36.57697 -4.86691 15042 ft 338 kts 185°
2026-05-06 09:29 36.55354 -4.86835 14620 ft 336 kts 185°
2026-05-06 09:29 36.53009 -4.86980 14123 ft 338 kts 185°
2026-05-06 09:30 36.50665 -4.87125 13647 ft 337 kts 185°
2026-05-06 09:30 36.48327 -4.87273 13141 ft 335 kts 185°
2026-05-06 09:30 36.46001 -4.87421 12643 ft 333 kts 185°
2026-05-06 09:30 36.43723 -4.87566 12179 ft 331 kts 185°
2026-05-06 09:31 36.41432 -4.87708 11707 ft 329 kts 185°
2026-05-06 09:31 36.39156 -4.87846 11241 ft 326 kts 185°
2026-05-06 09:31 36.36896 -4.87983 10808 ft 324 kts 186°
2026-05-06 09:31 36.34651 -4.88123 10380 ft 321 kts 185°
2026-05-06 09:32 36.32424 -4.88264 9989 ft 318 kts 185°
2026-05-06 09:32 36.30259 -4.88401 9868 ft 306 kts 185°
2026-05-06 09:32 36.28171 -4.88531 9740 ft 295 kts 186°
2026-05-06 09:32 36.26151 -4.88654 9522 ft 288 kts 186°
2026-05-06 09:33 36.24169 -4.88780 9086 ft 281 kts 188°
2026-05-06 09:33 36.22306 -4.89364 8422 ft 274 kts 208°
2026-05-06 09:33 36.20796 -4.90751 7756 ft 270 kts 231°
2026-05-06 09:33 36.19860 -4.92699 7094 ft 267 kts 253°
2026-05-06 09:34 36.19478 -4.94945 6433 ft 267 kts 263°
2026-05-06 09:34 36.19174 -4.97212 5772 ft 267 kts 262°
2026-05-06 09:34 36.18867 -4.99474 5168 ft 265 kts 262°
2026-05-06 09:34 36.18562 -5.01703 4601 ft 261 kts 262°
2026-05-06 09:35 36.18263 -5.03864 4323 ft 245 kts 262°
2026-05-06 09:35 36.17984 -5.05864 4193 ft 226 kts 262°
2026-05-06 09:35 36.17730 -5.07705 4068 ft 209 kts 262°
2026-05-06 09:35 36.17572 -5.08846 3988 ft 197 kts 262°
2026-05-06 09:36 36.17348 -5.10470 3840 ft 188 kts 262°
2026-05-06 09:36 36.17130 -5.12054 3567 ft 186 kts 262°
2026-05-06 09:36 36.16844 -5.14128 3231 ft 182 kts 262°
2026-05-06 09:36 36.16633 -5.15652 3003 ft 178 kts 262°
2026-05-06 09:37 36.16426 -5.17149 2764 ft 175 kts 262°
2026-05-06 09:37 36.16221 -5.18634 2487 ft 175 kts 262°
2026-05-06 09:37 36.16082 -5.19639 2303 ft 176 kts 262°
2026-05-06 09:37 36.15876 -5.21124 2066 ft 174 kts 262°
2026-05-06 09:38 36.15673 -5.22576 1865 ft 169 kts 262°
2026-05-06 09:38 36.15493 -5.23984 1660 ft 162 kts 267°
2026-05-06 09:38 36.15419 -5.25334 1447 ft 158 kts 268°
2026-05-06 09:38 36.15393 -5.26683 1233 ft 155 kts 269°
2026-05-06 09:39 36.15363 -5.28013 1032 ft 151 kts 267°
2026-05-06 09:39 36.15305 -5.29236 873 ft 137 kts 266°
2026-05-06 09:39 36.15271 -5.30373 610 ft 129 kts 266°
2026-05-06 09:39 36.15239 -5.31469 432 ft 126 kts 265°
2026-05-06 09:40 36.15208 -5.32569 273 ft 128 kts 265°
2026-05-06 09:40 36.15167 -5.33662 110 ft 127 kts 264°
2026-05-06 09:40 36.15100 -5.35394 20 ft 52 kts 268°
2026-05-06 09:41 36.15091 -5.35725 17 ft 23 kts 268°
2026-05-06 09:41 36.15077 -5.35843 18 ft 12 kts 242°
2026-05-06 09:41 36.15070 -5.35903 17 ft 4 kts 336°
2026-05-06 09:41 36.15086 -5.35866 19 ft 7 kts 88°
2026-05-06 09:42 36.15088 -5.35791 17 ft 12 kts 88°
2026-05-06 09:42 36.15093 -5.35663 17 ft 18 kts 86°
2026-05-06 09:42 36.15099 -5.35490 19 ft 22 kts 88°
2026-05-06 09:42 36.15106 -5.35294 20 ft 24 kts 87°
2026-05-06 09:43 36.15113 -5.35070 20 ft 28 kts 88°
2026-05-06 09:43 36.15120 -5.34855 19 ft 21 kts 88°
2026-05-06 09:43 36.15131 -5.34716 19 ft 13 kts 67°
2026-05-06 09:43 36.15198 -5.34680 20 ft 7 kts
2026-05-06 09:44 36.15238 -5.34632 18 ft 9 kts 39°
2026-05-06 09:44 36.15285 -5.34627 18 ft 4 kts 356°
2026-05-06 09:44 36.15301 -5.34628 18 ft 2 kts 356°
2026-05-06 09:44 36.15305 -5.34629 18 ft 0 kts 356°